Location: Doughton Park
(36.4224°N, 81.1835°W)
Time: 20:47:58
(UTC-04:00)

ISS - All Passes

Search period start: 22 October 2017 00:00
Search period end: 01 November 2017 00:00
Orbit: 401 x 408 km, 51.6° (Epoch: 23 October)

Date Brightness Start Highest point End Pass type
(mag) Time Alt. Az. Time Alt. Az. Time Alt. Az.
22 Oct - 09:13:13 10° SSW 09:16:07 30° SE 09:19:01 10° ENE daylight
22 Oct - 10:49:52 10° W 10:52:35 24° NNW 10:55:20 10° NNE daylight
22 Oct - 15:43:18 10° NNW 15:45:36 18° NNE 15:47:54 10° ENE daylight
22 Oct - 17:19:05 10° WNW 17:22:17 54° SW 17:25:29 10° SSE daylight
23 Oct - 08:22:01 10° SSE 08:23:58 15° SE 08:25:55 10° E daylight
23 Oct - 09:57:03 10° WSW 10:00:10 43° NW 10:03:18 10° NE daylight
23 Oct - 14:51:41 10° N 14:53:00 12° NNE 14:54:19 10° NE daylight
23 Oct - 16:26:44 10° NW 16:29:59 69° NE 16:33:15 10° SE daylight
24 Oct - 09:04:34 10° SW 09:07:48 89° SSE 09:11:03 10° NE daylight
24 Oct - 10:42:57 10° WNW 10:44:41 14° NNW 10:46:24 10° N daylight
24 Oct - 15:34:34 10° NNW 15:37:36 34° NE 15:40:37 10° ESE daylight
24 Oct - 17:11:27 10° W 17:13:53 20° SW 17:16:20 10° S daylight
25 Oct - 08:12:28 10° SSW 08:15:32 40° SE 08:18:35 10° ENE daylight
25 Oct - 09:49:34 10° W 09:52:06 20° NNW 09:54:38 10° NNE daylight
25 Oct - 14:42:34 10° NNW 14:45:06 20° NNE 14:47:38 10° E daylight
25 Oct - 16:18:35 10° WNW 16:21:41 41° SW 16:24:46 10° SSE daylight
26 Oct - 07:20:55 10° S 07:23:19 19° SE 07:25:43 10° E daylight
26 Oct - 08:56:35 10° WSW 08:59:36 34° NW 09:02:37 10° NNE daylight
26 Oct - 13:50:47 10° N 13:52:30 13° NNE 13:54:13 10° ENE daylight
26 Oct - 15:26:07 10° NW 15:29:23 89° NE 15:32:39 10° SE daylight
27 Oct - 08:03:57 10° SW 08:07:10 70° NW 08:10:25 10° NE daylight
27 Oct - 09:42:49 10° NW 09:44:09 12° NNW 09:45:28 10° N daylight
27 Oct - 14:33:51 10° NW 14:36:59 42° NE 14:40:07 10° ESE daylight
27 Oct - 16:11:10 10° W 16:13:11 15° SW 16:15:12 10° SSW daylight
28 Oct - 07:11:40 10° SSW 07:14:49 52° SE 07:18:00 10° ENE visible
28 Oct - 08:49:12 10° WNW 08:51:30 18° NNW 08:53:48 10° NNE daylight
28 Oct - 13:41:46 10° NNW 13:44:29 24° NNE 13:47:13 10° E daylight
28 Oct - 15:18:01 10° WNW 15:20:58 31° SW 15:23:54 10° SSE daylight
29 Oct - 06:19:51 10° S 06:22:33 24° SE 06:25:15 10° ENE visible
29 Oct - 07:56:03 10° W 07:58:56 28° NNW 08:01:49 10° NNE daylight
29 Oct - 12:49:50 10° NNW 12:51:53 15° NNE 12:53:55 10° ENE daylight
29 Oct - 14:25:25 10° NW 14:28:39 70° SW 14:31:54 10° SE daylight
30 Oct - 05:29:02 10° SSE 05:30:20 12° SE 05:31:39 10° ESE visible
30 Oct - 07:03:15 10° WSW 07:06:26 54° NW 07:09:38 10° NE visible
30 Oct - 08:42:46 10° NW 08:43:30 11° NNW 08:44:14 10° N daylight
30 Oct - 11:58:27 10° N 11:59:11 11° NNE 11:59:55 10° NE daylight
30 Oct - 13:33:02 10° NW 13:36:15 54° NE 13:39:27 10° ESE daylight
30 Oct - 15:11:01 10° WSW 15:12:21 12° SW 15:13:41 10° SSW daylight
31 Oct - 06:10:48 10° SW 06:14:01 70° SE 06:17:16 10° NE visible
31 Oct - 07:48:46 10° WNW 07:50:48 15° NNW 07:52:49 10° NNE daylight
31 Oct - 12:40:51 10° NNW 12:43:44 28° NNE 12:46:37 10° E daylight
31 Oct - 14:17:24 10° WNW 14:20:07 24° SW 14:22:50 10° S daylight
